Location: Betra
(48.4113°N, 8.6634°E)
Time: 18:33:47
(UTC+00:00)

SL-16 DEB - Visible Passes

Search period start: 07 October 2024 00:00
Search period end: 17 October 2024 00:00
Orbit: 840 x 1173 km, 71.0° (Epoch: 06 October)

Date Brightness Start Highest point End Pass type
(mag) Time Alt. Az. Time Alt. Az. Time Alt. Az.
07 Oct ? 03:00:45 10° N 03:05:14 24° NE 03:09:44 10° E visible
07 Oct ? 04:47:53 10° NNW 04:53:28 74° WSW 04:59:10 10° SSE visible
07 Oct ? 18:27:28 10° S 18:33:06 35° ESE 18:38:23 10° NE visible
07 Oct ? 20:14:38 10° SW 20:20:38 47° NW 20:26:15 10° NNE visible
07 Oct ? 22:07:02 10° WNW 22:09:49 13° NNW 22:12:32 10° N visible
08 Oct ? 01:49:18 10° N 01:51:29 12° NNE 01:53:40 10° NE visible
08 Oct ? 03:35:24 10° NNW 03:40:46 44° NE 03:46:11 10° SE visible
08 Oct ? 17:18:49 10° ESE 17:21:14 12° E 17:23:34 10° ENE visible
08 Oct ? 19:01:40 10° SSW 19:07:56 73° ESE 19:13:46 10° NNE visible
08 Oct ? 20:51:06 10° W 20:56:08 26° NW 21:00:55 10° N visible
09 Oct ? 02:23:23 10° N 02:27:29 20° NE 02:31:35 10° E visible
09 Oct ? 04:10:19 10° NNW 04:15:57 89° ENE 04:21:42 10° SSE visible
09 Oct ? 17:50:31 10° SSE 17:55:42 28° ESE 18:00:35 10° NE visible
09 Oct ? 19:36:54 10° SW 19:43:01 58° WNW 19:48:46 10° NNE visible
09 Oct ? 21:28:34 10° WNW 21:31:58 15° NW 21:35:16 10° N visible
10 Oct ? 01:12:30 10° NNE 01:13:35 10° NNE 01:14:41 10° NE visible
10 Oct ? 02:57:58 10° NNW 03:03:07 36° NE 03:08:19 10° ESE visible
10 Oct ? 04:45:34 10° NW 04:50:50 43° WSW 04:56:13 10° S visible
10 Oct ? 18:24:19 10° S 18:30:27 58° ESE 18:36:09 10° NE visible
10 Oct ? 20:13:05 10° WSW 20:18:25 31° NW 20:23:29 10° NNE visible
11 Oct ? 01:46:03 10° N 01:49:41 17° NE 01:53:19 10° ENE visible
11 Oct ? 03:32:47 10° NNW 03:38:23 72° ENE 03:44:07 10° SE visible
11 Oct ? 17:13:44 10° SSE 17:18:18 22° ESE 17:22:41 10° NE visible
11 Oct ? 18:59:16 10° SW 19:05:27 71° WNW 19:11:14 10° NNE visible
11 Oct ? 20:50:13 10° W 20:54:08 18° NW 20:57:57 10° N visible
12 Oct ? 02:20:31 10° NNW 02:25:25 30° NE 02:30:23 10° ESE visible
12 Oct ? 04:07:54 10° NW 04:13:21 55° WSW 04:18:58 10° S visible
12 Oct ? 17:47:05 10° S 17:52:58 46° ESE 17:58:30 10° NE visible
12 Oct ? 19:35:09 10° WSW 19:40:45 37° NW 19:46:02 10° NNE visible
12 Oct ? 21:28:48 10° NW 21:30:14 11° NNW 21:31:38 10° NNW visible
13 Oct ? 01:08:46 10° N 01:11:51 15° NNE 01:14:56 10° ENE visible
13 Oct ? 02:55:16 10° NNW 03:00:48 58° ENE 03:06:28 10° SE visible
13 Oct ? 04:43:33 10° NW 04:48:02 25° WSW 04:52:38 10° SSW visible
13 Oct ? 18:21:42 10° SSW 18:27:53 87° WNW 18:33:42 10° NNE visible
13 Oct ? 20:11:58 10° W 20:16:21 21° NW 20:20:36 10° N visible
14 Oct ? 01:43:06 10° N 01:47:41 25° NE 01:52:20 10° E visible
14 Oct ? 03:30:17 10° NNW 03:35:51 69° WSW 03:41:37 10° SSE visible
14 Oct ? 17:09:56 10° S 17:15:31 36° ESE 17:20:46 10° NE visible
14 Oct ? 18:57:17 10° SW 19:03:05 44° NW 19:08:34 10° NNE visible
14 Oct ? 20:49:56 10° NW 20:52:19 12° NNW 20:54:41 10° N visible
15 Oct?00:36:41ENE00:36:41ENE00:29:06NNWvisible
15 Oct ? 02:22:14 43° NNE 02:23:11 47° NE 02:28:42 10° SE visible
15 Oct ? 04:07:46 20° WNW 04:10:37 32° WSW 04:15:41 10° SSW visible
15 Oct ? 17:44:13 10° SSW 17:50:21 77° ESE 17:56:07 10° NNE visible
15 Oct ? 19:33:49 10° W 19:38:35 24° NW 19:43:12 10° N visible
16 Oct ? 01:13:58 11° E 01:13:58 11° E 01:14:12 10° E visible
16 Oct ? 02:59:28 59° SSE 02:59:28 59° SSE 03:04:09 10° SSE visible
16 Oct ? 04:44:58 14° W 04:45:07 14° W 04:48:01 10° SW visible
16 Oct ? 18:19:31 10° SW 18:25:27 54° WNW 18:31:04 10° NNE visible
16 Oct ? 20:11:23 10° WNW 20:14:27 14° NNW 20:17:28 10° N visible
